User: anonymous   Login
Location: Bucharest
(44.4268°N, 26.1025°E)
Time: 13:49:35
(UTC+03:00)
Language:

JY1SAT - Orbit

View from above orbital plane
View from above orbital plane
View from above satellite
View from above satellite

Ground track
Ground track

The orbit data is extracted from the following two-line orbital elements,

1 43803U 18099AX  22180.89932587  .00000854  00000-0  78826-4 0  9991
2 43803  97.6192 247.6106 0013725 221.8563 138.1610 14.97130818194933
Epoch (UTC): 29 June 2022 21:35:01
Eccentricity: 0.0013725
inclination: 97.6192°
perigee height: 566 km
apogee height: 585 km
right ascension of ascending node: 247.6106°
argument of perigee: 221.8563°
revolutions per day: 14.97130818
mean anomaly at epoch: 138.1610°
orbit number at epoch: 19493

The dashed part of the orbit path shows where the satellite is in the earth's shadow,  

DLR